ICEYE-X6 (46497 NORAD) Tracking and Keplerian Element Data

This shows tracking and keplerian element data for the satellite.

Feedback or suggestion? Click here.




ElementValue
Catalog46497
NameICEYE-X6
Epoch Orbit474
Epoch Day304.23989853
Epoch Year2020
RAAN237.4141
Inclination97.668
Eccentricity0.0016156
Argument of Perigee133.3864
Mean Anonmoly226.8726
Mean Motion15.02845836
Decay Rate1.208E-05
L11 46497U 20068M 20304.23989853 .00001208 00000-0 94514-4 0 9990
L22 46497 97.6680 237.4141 0016156 133.3864 226.8726 15.02845836 4747

Live tracking and technical data element details for ICEYE-X6 (NORAD 46497). ICEYE-X6 can be tracked NOW for your location showing map with azimuth and elevation plus other details from your city location.

Track the satellite on the map from your city or location and see movement details for azimuth, elevation, latitude, longitude, range, height, and movement on the map or in text.







IsCatalogInMostPopularTable: catalog: 46497, numindb: 8
Update: records affected: 1



GetName: 46497 ICEYE-X6

Hit Count: updated at: Sat, 31 Oct 2020 06:38:03 GMT